Time,TemperatureF,DewpointF,PressureIn,WindDirection,WindDirectionDegrees,WindSpeedMPH,WindSpeedGustMPH,Humidity,HourlyPrecipIn,Conditions,Clouds,dailyrainin,SoftwareType,DateUTC
2016-02-10 00:03:00,14.0,9.9,29.94,West,264,8.1,11.0,83,0.00,,,0.00,meteobridge,2016-02-10 05:03:00,
2016-02-10 00:08:00,13.8,9.9,29.94,West,265,6.0,11.0,84,0.00,,,0.00,meteobridge,2016-02-10 05:08:00,
2016-02-10 00:13:00,14.0,10.0,29.94,West,279,12.1,12.1,84,0.00,,,0.00,meteobridge,2016-02-10 05:13:00,
2016-02-10 00:18:00,14.0,10.0,29.94,WSW,254,8.1,12.0,84,0.00,,,0.00,meteobridge,2016-02-10 05:18:00,
2016-02-10 00:23:00,14.0,10.0,29.94,SW,225,8.1,11.0,84,0.00,,,0.00,meteobridge,2016-02-10 05:23:00,
2016-02-10 00:28:00,14.0,10.0,29.94,West,265,6.0,12.0,84,0.00,,,0.00,meteobridge,2016-02-10 05:28:00,
2016-02-10 00:33:00,14.2,10.2,29.94,West,267,11.0,11.0,84,0.00,,,0.00,meteobridge,2016-02-10 05:33:00,
2016-02-10 00:38:00,14.2,10.2,29.94,West,265,8.9,10.0,84,0.00,,,0.00,meteobridge,2016-02-10 05:38:00,
2016-02-10 00:43:00,14.2,10.2,29.94,WNW,286,6.9,12.0,84,0.00,,,0.00,meteobridge,2016-02-10 05:43:00,
2016-02-10 00:48:00,14.4,10.4,29.94,WNW,289,4.9,12.0,84,0.00,,,0.00,meteobridge,2016-02-10 05:48:00,
2016-02-10 00:58:00,14.5,10.6,29.94,WNW,286,16.1,16.1,84,0.00,,,0.00,meteobridge,2016-02-10 05:58:00,
2016-02-10 01:03:00,14.5,10.6,29.94,West,273,10.1,13.0,84,0.00,,,0.00,meteobridge,2016-02-10 06:03:00,
2016-02-10 01:08:00,14.5,10.6,29.94,NNW,331,10.1,12.0,84,0.00,,,0.00,meteobridge,2016-02-10 06:08:00,
2016-02-10 01:13:00,14.5,10.6,29.94,NW,313,6.9,10.0,84,0.00,,,0.00,meteobridge,2016-02-10 06:13:00,
2016-02-10 01:18:00,14.5,10.9,29.94,WSW,240,6.9,9.0,85,0.00,,,0.00,meteobridge,2016-02-10 06:18:00,
2016-02-10 01:23:00,14.5,10.9,29.93,SW,236,8.9,11.0,85,0.00,,,0.00,meteobridge,2016-02-10 06:23:00,
2016-02-10 01:29:00,14.5,11.1,29.94,WSW,257,12.1,12.1,86,0.00,,,0.00,meteobridge,2016-02-10 06:29:00,
2016-02-10 01:34:00,14.7,11.1,29.94,WNW,288,8.9,13.0,85,0.00,,,0.00,meteobridge,2016-02-10 06:34:00,
2016-02-10 01:44:00,14.7,11.1,29.94,WSW,248,6.0,14.0,85,0.00,,,0.00,meteobridge,2016-02-10 06:44:00,
2016-02-10 01:49:00,14.5,10.9,29.93,West,264,8.9,10.0,85,0.00,,,0.00,meteobridge,2016-02-10 06:49:00,
2016-02-10 01:54:00,14.5,10.9,29.93,NW,325,8.9,10.0,85,0.00,,,0.00,meteobridge,2016-02-10 06:54:00,
2016-02-10 01:59:00,14.5,11.1,29.93,WSW,244,8.1,9.0,86,0.00,,,0.00,meteobridge,2016-02-10 06:59:00,
2016-02-10 02:04:00,14.7,11.3,29.93,West,274,4.9,12.0,86,0.00,,,0.00,meteobridge,2016-02-10 07:04:00,
2016-02-10 02:09:00,14.9,11.3,29.93,NNW,327,8.9,12.0,85,0.00,,,0.00,meteobridge,2016-02-10 07:09:00,
2016-02-10 02:14:00,15.1,11.5,29.93,WNW,283,6.0,12.0,85,0.00,,,0.00,meteobridge,2016-02-10 07:14:00,
2016-02-10 02:19:00,15.1,11.5,29.93,West,261,10.1,13.0,85,0.00,,,0.00,meteobridge,2016-02-10 07:19:00,
2016-02-10 02:24:00,15.3,11.5,29.93,West,271,6.9,11.0,85,0.00,,,0.00,meteobridge,2016-02-10 07:24:00,
2016-02-10 02:29:00,15.1,11.5,29.93,West,271,6.9,10.0,85,0.00,,,0.00,meteobridge,2016-02-10 07:29:00,
2016-02-10 02:34:00,15.1,11.5,29.93,West,265,6.9,13.0,85,0.00,,,0.00,meteobridge,2016-02-10 07:34:00,
2016-02-10 02:39:00,15.1,11.7,29.93,West,280,6.9,13.0,86,0.00,,,0.00,meteobridge,2016-02-10 07:39:00,
2016-02-10 02:44:00,15.1,11.7,29.93,WNW,298,6.9,13.0,86,0.00,,,0.00,meteobridge,2016-02-10 07:44:00,
2016-02-10 02:49:00,15.1,11.7,29.93,WSW,258,6.0,10.0,86,0.00,,,0.00,meteobridge,2016-02-10 07:49:00,
2016-02-10 02:54:00,15.1,11.7,29.93,West,267,6.9,13.0,86,0.00,,,0.00,meteobridge,2016-02-10 07:54:00,
2016-02-10 02:59:00,15.3,12.0,29.93,West,273,6.9,12.0,87,0.00,,,0.00,meteobridge,2016-02-10 07:59:00,
2016-02-10 03:05:00,15.3,12.0,29.93,West,276,6.9,9.0,87,0.00,,,0.00,meteobridge,2016-02-10 08:05:00,
2016-02-10 03:10:00,15.3,12.0,29.93,West,268,6.9,11.0,87,0.00,,,0.00,meteobridge,2016-02-10 08:10:00,
2016-02-10 03:15:00,15.3,12.0,29.93,West,268,6.0,11.0,87,0.00,,,0.00,meteobridge,2016-02-10 08:15:00,
2016-02-10 03:20:00,15.3,12.0,29.93,WNW,300,10.1,10.1,87,0.00,,,0.00,meteobridge,2016-02-10 08:20:00,
2016-02-10 03:25:00,15.4,12.2,29.93,West,274,4.9,11.0,87,0.00,,,0.00,meteobridge,2016-02-10 08:25:00,
2016-02-10 03:30:00,15.4,12.0,29.93,West,267,8.9,14.0,86,0.00,,,0.00,meteobridge,2016-02-10 08:30:00,
2016-02-10 03:35:00,15.3,11.5,29.94,WNW,302,12.1,13.0,85,0.00,,,0.00,meteobridge,2016-02-10 08:35:00,
2016-02-10 03:40:00,15.3,11.5,29.94,WNW,282,8.1,12.0,85,0.00,,,0.00,meteobridge,2016-02-10 08:40:00,
2016-02-10 03:45:00,15.1,11.5,29.94,West,279,10.1,16.0,85,0.00,,,0.00,meteobridge,2016-02-10 08:45:00,
2016-02-10 03:55:00,15.1,11.1,29.94,West,277,10.1,12.0,84,0.00,,,0.00,meteobridge,2016-02-10 08:55:00,
2016-02-10 04:00:00,15.1,11.5,29.94,WNW,288,11.0,13.0,85,0.00,,,0.00,meteobridge,2016-02-10 09:00:00,
2016-02-10 04:05:00,14.9,10.9,29.94,West,266,0.9,12.0,84,0.00,,,0.00,meteobridge,2016-02-10 09:05:00,
2016-02-10 04:10:00,14.7,10.8,29.94,WNW,299,11.0,14.0,84,0.00,,,0.00,meteobridge,2016-02-10 09:10:00,
2016-02-10 04:15:00,14.7,11.1,29.95,NW,306,8.1,18.0,85,0.00,,,0.00,meteobridge,2016-02-10 09:15:00,
2016-02-10 04:20:00,14.7,11.1,29.95,NW,305,8.1,14.0,85,0.00,,,0.00,meteobridge,2016-02-10 09:20:00,
2016-02-10 04:25:00,14.7,10.8,29.95,SW,235,8.9,14.0,84,0.00,,,0.00,meteobridge,2016-02-10 09:25:00,
2016-02-10 04:31:00,14.7,10.8,29.95,WSW,253,6.9,10.0,84,0.00,,,0.00,meteobridge,2016-02-10 09:31:00,
2016-02-10 04:36:00,14.7,10.8,29.95,WNW,294,14.1,18.0,84,0.00,,,0.00,meteobridge,2016-02-10 09:36:00,
2016-02-10 04:41:00,14.7,10.8,29.95,West,269,8.1,14.0,84,0.00,,,0.00,meteobridge,2016-02-10 09:41:00,
2016-02-10 04:46:00,14.7,10.8,29.95,SSW,211,8.1,13.0,84,0.00,,,0.00,meteobridge,2016-02-10 09:46:00,
2016-02-10 04:51:00,14.7,11.1,29.95,NW,316,13.0,13.0,85,0.00,,,0.00,meteobridge,2016-02-10 09:51:00,
2016-02-10 04:56:00,14.5,10.9,29.96,West,268,8.1,12.0,85,0.00,,,0.00,meteobridge,2016-02-10 09:56:00,
2016-02-10 05:01:00,14.5,10.9,29.96,West,277,12.1,16.0,85,0.00,,,0.00,meteobridge,2016-02-10 10:01:00,
2016-02-10 05:06:00,14.5,10.9,29.96,WNW,301,13.0,13.0,85,0.00,,,0.00,meteobridge,2016-02-10 10:06:00,
2016-02-10 05:11:00,14.4,10.9,29.96,WNW,296,8.9,15.0,86,0.00,,,0.00,meteobridge,2016-02-10 10:11:00,
2016-02-10 05:16:00,14.4,10.9,29.96,WSW,240,6.9,13.0,86,0.00,,,0.00,meteobridge,2016-02-10 10:16:00,
2016-02-10 05:21:00,14.4,11.1,29.96,NW,314,6.0,11.0,87,0.00,,,0.00,meteobridge,2016-02-10 10:21:00,
2016-02-10 05:26:00,14.4,11.1,29.96,NW,305,6.9,11.0,87,0.00,,,0.00,meteobridge,2016-02-10 10:26:00,
2016-02-10 05:31:00,14.4,11.1,29.96,WSW,250,8.1,12.0,87,0.00,,,0.00,meteobridge,2016-02-10 10:31:00,
2016-02-10 05:36:00,14.4,11.1,29.96,West,261,11.0,12.0,87,0.00,,,0.00,meteobridge,2016-02-10 10:36:00,
2016-02-10 05:41:00,14.2,10.9,29.96,West,266,10.1,10.1,87,0.00,,,0.00,meteobridge,2016-02-10 10:41:00,
2016-02-10 05:46:00,14.0,10.9,29.97,West,267,8.1,13.0,87,0.00,,,0.00,meteobridge,2016-02-10 10:46:00,
2016-02-10 05:56:00,13.6,10.6,29.97,West,261,8.1,15.0,87,0.00,,,0.00,meteobridge,2016-02-10 10:56:00,
2016-02-10 06:01:00,13.6,10.6,29.97,NW,311,8.9,13.0,87,0.00,,,0.00,meteobridge,2016-02-10 11:01:00,
2016-02-10 06:06:00,13.6,10.2,29.98,NW,317,10.1,12.0,86,0.00,,,0.00,meteobridge,2016-02-10 11:06:00,
2016-02-10 06:11:00,13.6,10.2,29.98,West,263,14.1,14.1,86,0.00,,,0.00,meteobridge,2016-02-10 11:11:00,
2016-02-10 06:16:00,13.6,10.2,29.98,NW,314,10.1,12.0,86,0.00,,,0.00,meteobridge,2016-02-10 11:16:00,
2016-02-10 06:26:00,13.5,9.9,29.98,WSW,248,11.0,14.0,85,0.00,,,0.00,meteobridge,2016-02-10 11:26:00,
2016-02-10 06:31:00,13.5,9.9,29.98,West,265,10.1,13.0,85,0.00,,,0.00,meteobridge,2016-02-10 11:31:00,
2016-02-10 06:36:00,13.5,9.9,29.98,NW,304,8.9,13.0,85,0.00,,,0.00,meteobridge,2016-02-10 11:36:00,
2016-02-10 06:46:00,13.5,9.9,29.99,WSW,244,10.1,16.0,85,0.00,,,0.00,meteobridge,2016-02-10 11:46:00,
2016-02-10 06:51:00,13.5,9.9,29.99,West,268,8.9,19.0,85,0.00,,,0.00,meteobridge,2016-02-10 11:51:00,
2016-02-10 06:57:00,13.5,9.9,29.99,WNW,284,8.9,13.0,85,0.00,,,0.00,meteobridge,2016-02-10 11:57:00,
2016-02-10 07:02:00,13.5,9.9,29.98,WNW,294,6.9,9.0,85,0.00,,,0.00,meteobridge,2016-02-10 12:02:00,
2016-02-10 07:07:00,13.5,9.9,29.99,West,281,8.9,18.0,85,0.00,,,0.00,meteobridge,2016-02-10 12:07:00,
2016-02-10 07:12:00,13.5,9.9,29.99,SW,228,6.0,12.0,85,0.00,,,0.00,meteobridge,2016-02-10 12:12:00,
2016-02-10 07:17:00,13.5,9.9,29.99,NW,312,8.9,11.0,85,0.00,,,0.00,meteobridge,2016-02-10 12:17:00,
2016-02-10 07:22:00,13.5,9.9,29.99,West,262,16.1,19.0,85,0.00,,,0.00,meteobridge,2016-02-10 12:22:00,
2016-02-10 07:27:00,13.5,9.9,29.99,West,266,11.0,14.0,85,0.00,,,0.00,meteobridge,2016-02-10 12:27:00,
2016-02-10 07:32:00,13.5,9.5,29.99,West,265,6.9,13.0,84,0.00,,,0.00,meteobridge,2016-02-10 12:32:00,
2016-02-10 07:37:00,13.5,9.5,29.99,SW,236,6.0,12.0,84,0.00,,,0.00,meteobridge,2016-02-10 12:37:00,
2016-02-10 07:42:00,13.5,9.5,29.99,NW,316,12.1,12.1,84,0.00,,,0.00,meteobridge,2016-02-10 12:42:00,
2016-02-10 07:47:00,13.5,9.9,29.99,West,275,8.9,11.0,85,0.00,,,0.00,meteobridge,2016-02-10 12:47:00,
2016-02-10 07:52:00,13.3,9.7,29.99,West,269,6.9,13.0,85,0.00,,,0.00,meteobridge,2016-02-10 12:52:00,
2016-02-10 07:57:00,13.3,9.9,30.00,WNW,282,6.9,10.0,86,0.00,,,0.00,meteobridge,2016-02-10 12:57:00,
2016-02-10 08:02:00,13.3,9.9,30.00,NW,307,6.9,12.0,86,0.00,,,0.00,meteobridge,2016-02-10 13:02:00,
2016-02-10 08:07:00,12.9,9.5,30.00,NW,308,11.0,15.0,86,0.00,,,0.00,meteobridge,2016-02-10 13:07:00,
2016-02-10 08:12:00,12.9,9.5,30.00,WNW,294,6.9,12.0,86,0.00,,,0.00,meteobridge,2016-02-10 13:12:00,
2016-02-10 08:17:00,12.9,9.5,30.00,WNW,302,6.0,12.0,86,0.00,,,0.00,meteobridge,2016-02-10 13:17:00,
2016-02-10 08:22:00,12.7,9.1,30.01,WNW,288,8.1,12.0,85,0.00,,,0.00,meteobridge,2016-02-10 13:22:00,
2016-02-10 08:27:00,12.7,9.1,30.01,NW,311,10.1,12.0,85,0.00,,,0.00,meteobridge,2016-02-10 13:27:00,
2016-02-10 08:32:00,12.7,9.1,30.01,West,279,8.1,13.0,85,0.00,,,0.00,meteobridge,2016-02-10 13:32:00,
2016-02-10 08:37:00,12.7,9.1,30.01,West,271,12.1,14.0,85,0.00,,,0.00,meteobridge,2016-02-10 13:37:00,
2016-02-10 08:42:00,12.7,9.1,30.01,SW,228,8.1,15.0,85,0.00,,,0.00,meteobridge,2016-02-10 13:42:00,
2016-02-10 08:52:00,12.7,9.1,30.01,WNW,296,12.1,18.0,85,0.00,,,0.00,meteobridge,2016-02-10 13:52:00,
2016-02-10 08:57:00,12.7,8.8,30.01,West,271,8.9,16.0,84,0.00,,,0.00,meteobridge,2016-02-10 13:57:00,
2016-02-10 09:02:00,12.7,9.1,30.01,WNW,286,8.9,13.0,85,0.00,,,0.00,meteobridge,2016-02-10 14:02:00,
2016-02-10 09:08:00,12.7,8.8,30.02,West,275,10.1,15.0,84,0.00,,,0.00,meteobridge,2016-02-10 14:08:00,
2016-02-10 09:13:00,12.7,8.8,30.02,WNW,300,8.9,14.0,84,0.00,,,0.00,meteobridge,2016-02-10 14:13:00,
2016-02-10 09:18:00,12.9,9.0,30.02,West,268,8.9,18.0,84,0.00,,,0.00,meteobridge,2016-02-10 14:18:00,
2016-02-10 09:28:00,12.9,8.8,30.02,WSW,257,14.1,14.1,83,0.00,,,0.00,meteobridge,2016-02-10 14:28:00,
2016-02-10 09:38:00,12.9,8.8,30.02,West,279,6.9,16.0,83,0.00,,,0.00,meteobridge,2016-02-10 14:38:00,
2016-02-10 09:43:00,13.3,9.1,30.03,West,267,10.1,12.0,83,0.00,,,0.00,meteobridge,2016-02-10 14:43:00,
2016-02-10 09:48:00,13.1,9.0,30.03,West,261,10.1,16.0,83,0.00,,,0.00,meteobridge,2016-02-10 14:48:00,
2016-02-10 09:53:00,13.1,9.0,30.03,SSW,198,8.9,16.0,83,0.00,,,0.00,meteobridge,2016-02-10 14:53:00,
2016-02-10 09:58:00,13.3,9.1,30.03,West,274,11.0,18.0,83,0.00,,,0.00,meteobridge,2016-02-10 14:58:00,
2016-02-10 10:03:00,13.1,9.0,30.03,West,259,11.0,13.0,83,0.00,,,0.00,meteobridge,2016-02-10 15:03:00,
2016-02-10 10:08:00,13.5,9.3,30.03,WSW,242,8.9,13.0,83,0.00,,,0.00,meteobridge,2016-02-10 15:08:00,
2016-02-10 10:13:00,13.3,8.8,30.04,West,273,8.1,14.0,82,0.00,,,0.00,meteobridge,2016-02-10 15:13:00,
2016-02-10 10:18:00,13.1,8.6,30.04,West,275,6.9,19.0,82,0.00,,,0.00,meteobridge,2016-02-10 15:18:00,
2016-02-10 10:24:00,12.7,8.2,30.04,WNW,283,15.0,18.0,82,0.00,,,0.00,meteobridge,2016-02-10 15:24:00,
2016-02-10 10:29:00,12.9,8.2,30.05,WSW,258,15.0,16.0,81,0.00,,,0.00,meteobridge,2016-02-10 15:29:00,
2016-02-10 10:34:00,12.7,8.1,30.05,WSW,257,10.1,16.0,81,0.00,,,0.00,meteobridge,2016-02-10 15:34:00,
2016-02-10 10:39:00,12.9,8.2,30.06,West,271,12.1,16.0,81,0.00,,,0.00,meteobridge,2016-02-10 15:39:00,
2016-02-10 10:44:00,12.9,8.2,30.06,WSW,245,12.1,16.0,81,0.00,,,0.00,meteobridge,2016-02-10 15:44:00,
2016-02-10 10:54:00,12.9,8.2,30.06,WNW,287,13.0,18.0,81,0.00,,,0.00,meteobridge,2016-02-10 15:54:00,
2016-02-10 10:59:00,12.9,7.9,30.06,WNW,296,6.9,15.0,80,0.00,,,0.00,meteobridge,2016-02-10 15:59:00,
2016-02-10 11:04:00,13.5,8.4,30.06,West,271,10.1,20.0,80,0.00,,,0.00,meteobridge,2016-02-10 16:04:00,
2016-02-10 11:09:00,13.6,8.4,30.06,West,279,8.9,14.0,79,0.00,,,0.00,meteobridge,2016-02-10 16:09:00,
2016-02-10 11:14:00,13.8,8.6,30.06,West,265,14.1,14.1,79,0.00,,,0.00,meteobridge,2016-02-10 16:14:00,
2016-02-10 11:19:00,14.2,8.6,30.06,WSW,251,10.1,14.0,78,0.00,,,0.00,meteobridge,2016-02-10 16:19:00,
2016-02-10 11:24:00,14.0,8.4,30.06,West,259,6.0,12.0,78,0.00,,,0.00,meteobridge,2016-02-10 16:24:00,
2016-02-10 11:34:00,14.4,8.4,30.06,West,262,10.1,13.0,77,0.00,,,0.00,meteobridge,2016-02-10 16:34:00,
2016-02-10 11:39:00,14.5,8.6,30.06,West,259,8.1,16.0,77,0.00,,,0.00,meteobridge,2016-02-10 16:39:00,
2016-02-10 11:44:00,14.5,8.6,30.06,NW,304,13.0,16.0,77,0.00,,,0.00,meteobridge,2016-02-10 16:44:00,
2016-02-10 11:50:00,14.4,8.2,30.06,WSW,252,6.0,16.0,76,0.00,,,0.00,meteobridge,2016-02-10 16:50:00,
2016-02-10 11:55:00,14.7,8.6,30.06,West,259,13.0,16.0,76,0.00,,,0.00,meteobridge,2016-02-10 16:55:00,
2016-02-10 12:00:00,15.4,9.3,30.06,SW,231,6.9,12.0,76,0.00,,,0.00,meteobridge,2016-02-10 17:00:00,
2016-02-10 12:05:00,15.3,8.8,30.06,West,264,12.1,13.0,75,0.00,,,0.00,meteobridge,2016-02-10 17:05:00,
2016-02-10 12:10:00,15.3,8.8,30.06,NNW,329,13.0,15.0,75,0.00,,,0.00,meteobridge,2016-02-10 17:10:00,
2016-02-10 12:15:00,15.6,9.5,30.06,WSW,254,12.1,14.0,76,0.00,,,0.00,meteobridge,2016-02-10 17:15:00,
2016-02-10 12:20:00,15.1,8.2,30.06,West,265,11.0,18.0,74,0.00,,,0.00,meteobridge,2016-02-10 17:20:00,
2016-02-10 12:25:00,15.3,8.8,30.06,WSW,249,14.1,14.1,75,0.00,,,0.00,meteobridge,2016-02-10 17:25:00,
2016-02-10 12:30:00,14.9,8.1,30.06,NW,314,6.9,20.0,74,0.00,,,0.00,meteobridge,2016-02-10 17:30:00,
2016-02-10 12:35:00,14.7,7.9,30.06,West,264,12.1,19.0,74,0.00,,,0.00,meteobridge,2016-02-10 17:35:00,
2016-02-10 12:40:00,15.1,8.2,30.06,West,268,15.0,16.0,74,0.00,,,0.00,meteobridge,2016-02-10 17:40:00,
2016-02-10 12:45:00,15.1,8.1,30.06,WSW,255,11.0,16.0,73,0.00,,,0.00,meteobridge,2016-02-10 17:45:00,
2016-02-10 12:50:00,15.3,8.2,30.05,WSW,247,12.1,15.0,73,0.00,,,0.00,meteobridge,2016-02-10 17:50:00,